Saginaw, MI

12:11 PM EDT on August 27, 2016 (GMT -0400)
Saginaw County-Browne

Weather History for KHYX - February, 2013

Change the Weather History Date:

Sunday, February 17, 2013

  Actual Average (KMBS) Record (KMBS)
Temperature  
Mean Temperature 14 °F 25 °F  
Max Temperature 23 °F 32 °F 52 °F (2011)
Min Temperature 6 °F 18 °F -7 °F (2014)
Degree Days  
Heating Degree Days 50    
Month to date heating degree days  
Since 1 July heating degree days  
Cooling Degree Days 0    
Month to date cooling degree days  
Year to date cooling degree days  
Moisture  
Dew Point 7 °F    
Average Humidity 71    
Maximum Humidity 92    
Minimum Humidity 50    
Precipitation  
Precipitation 0.00 in 0.05 in 0.80 in (2008)
Month to date precipitation 0.85  
Year to date precipitation 2.56  
Snow  
Snow 0.00 in - - ()
Month to date snowfall  
Since 1 July snowfall  
Snow Depth -    
Sea Level Pressure  
Sea Level Pressure 30.15 in    
Wind  
Wind Speed 5 mph (NW)    
Max Wind Speed 9 mph    
Max Gust Speed -    
Visibility 10 miles    
Events      
T = Trace of Precipitation, MM = Missing Value Source: NWS Daily Summary

Daily Weather History Graph

Daily Weather History Graph

Search for Another Location

Airport or City:

Trip Planner

Search our weather history database for the weather conditions in past years. The results will help you decide how hot, cold, wet, or windy it might be!

Date:

Astronomy

Feb. 17, 2013 Rise Set
Actual Time 7:30 AM EST 6:09 PM EST
Civil Twilight 7:01 AM EST 6:38 PM EST
Nautical Twilight 6:27 AM EST 7:11 PM EST
Astronomical Twilight 5:54 AM EST 7:44 PM EST
Moon 11:08 AM EST (2/17) 1:17 AM EST (2/17)
Length of Visible Light 11h 37m
Length of Day
10h 38m
Waxing Crescent, 49% of the Moon is Illuminated
Feb 17
Waxing Crescent
Feb 17
First Quarter
Feb 25
Full
Mar 4
Last Quarter
Mar 11
New

Hourly Weather History & Observations

Time (EST) Temp. Windchill Dew Point Humidity Pressure Visibility Wind Dir Wind Speed Gust Speed Precip Events Conditions
12:11 AM 10.4 °F 4.0 °F 5.0 °F 79% 30.08 in 10.0 mi North 3.5 mph - N/A   Clear
12:31 AM 10.4 °F 4.0 °F 5.0 °F 79% 30.08 in 10.0 mi NNW 3.5 mph - N/A   Scattered Clouds
12:52 AM 8.6 °F 0.1 °F 5.0 °F 85% 30.09 in 10.0 mi NW 4.6 mph - N/A   Clear
1:12 AM 10.4 °F 4.0 °F 5.0 °F 79% 30.09 in 10.0 mi NNW 3.5 mph - N/A   Clear
1:32 AM 10.4 °F -0.4 °F 8.6 °F 92% 30.09 in 10.0 mi NW 6.9 mph - N/A   Mostly Cloudy
1:52 AM 12.2 °F 6.1 °F 6.8 °F 79% 30.09 in 10.0 mi NNW 3.5 mph - N/A   Overcast
2:12 AM 12.2 °F 4.3 °F 8.6 °F 85% 30.09 in 10.0 mi NW 4.6 mph - N/A   Overcast
2:32 AM 12.2 °F 1.7 °F 5.0 °F 73% 30.09 in 10.0 mi NNW 6.9 mph - N/A   Overcast
2:52 AM 10.4 °F -0.4 °F 5.0 °F 79% 30.09 in 10.0 mi NNW 6.9 mph - N/A   Overcast
3:12 AM 10.4 °F -2.4 °F 5.0 °F 79% 30.09 in 10.0 mi NNW 9.2 mph - N/A   Scattered Clouds
3:32 AM 10.4 °F -1.5 °F 3.2 °F 73% 30.09 in 10.0 mi NW 8.1 mph - N/A   Clear
3:52 AM 8.6 °F -1.3 °F 3.2 °F 79% 30.09 in 10.0 mi NW 5.8 mph - N/A   Clear
4:12 AM 8.6 °F -2.6 °F 3.2 °F 79% 30.09 in 10.0 mi NW 6.9 mph - N/A   Clear
4:32 AM 8.6 °F -2.6 °F 3.2 °F 79% 30.10 in 10.0 mi WNW 6.9 mph - N/A   Clear
4:52 AM 8.6 °F -2.6 °F 3.2 °F 79% 30.10 in 10.0 mi NW 6.9 mph - N/A   Clear
5:13 AM 8.6 °F -2.6 °F 1.4 °F 73% 30.11 in 10.0 mi WNW 6.9 mph - N/A   Clear
5:33 AM 6.8 °F -4.8 °F 1.4 °F 79% 30.11 in 10.0 mi NW 6.9 mph - N/A   Clear
5:53 AM 6.8 °F -5.9 °F 1.4 °F 79% 30.12 in 10.0 mi WNW 8.1 mph - N/A   Clear
6:13 AM 6.8 °F -4.8 °F 1.4 °F 79% 30.12 in 10.0 mi WNW 6.9 mph - N/A   Clear
6:33 AM 6.8 °F -4.8 °F 1.4 °F 79% 30.13 in 10.0 mi WNW 6.9 mph - N/A   Clear
6:53 AM 6.8 °F -4.8 °F 1.4 °F 79% 30.14 in 10.0 mi WNW 6.9 mph - N/A   Clear
7:13 AM 6.8 °F -4.8 °F 1.4 °F 79% 30.14 in 10.0 mi NW 6.9 mph - N/A   Clear
7:33 AM 6.8 °F -4.8 °F 1.4 °F 79% 30.14 in 10.0 mi WNW 6.9 mph - N/A   Clear
7:54 AM 6.8 °F -3.5 °F 1.4 °F 79% 30.15 in 10.0 mi WNW 5.8 mph - N/A   Clear
8:14 AM 8.6 °F -2.6 °F 1.4 °F 73% 30.15 in 10.0 mi NNW 6.9 mph - N/A   Clear
8:34 AM 8.6 °F -2.6 °F 3.2 °F 79% 30.15 in 10.0 mi NNW 6.9 mph - N/A   Clear
8:54 AM 10.4 °F -2.4 °F 3.2 °F 73% 30.16 in 10.0 mi NNW 9.2 mph - N/A   Clear
9:14 AM 10.4 °F 0.8 °F 3.2 °F 73% 30.16 in 10.0 mi North 5.8 mph - N/A   Clear
9:34 AM 10.4 °F 2.2 °F 5.0 °F 79% 30.17 in 10.0 mi North 4.6 mph - N/A   Clear
9:54 AM 12.2 °F 2.9 °F 5.0 °F 73% 30.17 in 10.0 mi NNW 5.8 mph - N/A   Clear
10:15 AM 14.0 °F 8.2 °F 6.8 °F 73% 30.17 in 10.0 mi NNW 3.5 mph - N/A   Clear
10:35 AM 14.0 °F 8.2 °F 8.6 °F 79% 30.18 in 10.0 mi North 3.5 mph - N/A   Clear
10:55 AM 15.8 °F 8.6 °F 8.6 °F 73% 30.19 in 10.0 mi North 4.6 mph - N/A   Clear
11:15 AM 15.8 °F 10.2 °F 8.6 °F 73% 30.18 in 10.0 mi NNE 3.5 mph - N/A   Clear
11:35 AM 17.6 °F 8.2 °F 6.8 °F 63% 30.19 in 10.0 mi North 6.9 mph - N/A   Clear
12:15 PM 17.6 °F 9.3 °F 6.8 °F 63% 30.18 in 10.0 mi NNE 5.8 mph - N/A   Clear
12:35 PM 17.6 °F 9.3 °F 8.6 °F 68% 30.18 in 10.0 mi NE 5.8 mph - N/A   Clear
12:55 PM 19.4 °F - 8.6 °F 63% 30.17 in 10.0 mi Calm Calm - N/A   Clear
1:15 PM 21.2 °F 16.4 °F 10.4 °F 63% 30.17 in 10.0 mi NW 3.5 mph - N/A   Scattered Clouds
1:35 PM 21.2 °F 16.4 °F 10.4 °F 63% 30.17 in 10.0 mi NW 3.5 mph - N/A   Scattered Clouds
1:55 PM 21.2 °F 13.6 °F 8.6 °F 58% 30.17 in 10.0 mi NW 5.8 mph - N/A   Clear
2:15 PM 21.2 °F 13.6 °F 8.6 °F 58% 30.16 in 10.0 mi NNW 5.8 mph - N/A   Clear
2:35 PM 23.0 °F 17.0 °F 8.6 °F 54% 30.16 in 10.0 mi NW 4.6 mph - N/A   Scattered Clouds
2:51 PM 23.0 °F 14.7 °F 8.6 °F 54% 30.16 in 10.0 mi NW 6.9 mph - N/A   Scattered Clouds
3:11 PM 21.2 °F - 5.0 °F 50% 30.16 in 10.0 mi Calm Calm - N/A   Mostly Cloudy
3:31 PM 23.0 °F 13.9 °F 8.6 °F 54% 30.16 in 10.0 mi WNW 8.1 mph - N/A   Mostly Cloudy
3:51 PM 23.0 °F 14.7 °F 8.6 °F 54% 30.16 in 10.0 mi West 6.9 mph - N/A   Mostly Cloudy
4:11 PM 23.0 °F 18.4 °F 6.8 °F 50% 30.16 in 10.0 mi NW 3.5 mph - N/A   Mostly Cloudy
4:31 PM 23.0 °F 18.4 °F 8.6 °F 54% 30.16 in 10.0 mi NNW 3.5 mph - N/A   Overcast
4:51 PM 23.0 °F 18.4 °F 8.6 °F 54% 30.16 in 10.0 mi North 3.5 mph - N/A   Overcast
5:11 PM 23.0 °F 14.7 °F 8.6 °F 54% 30.16 in 10.0 mi West 6.9 mph - N/A   Overcast
5:31 PM 21.2 °F 11.7 °F 8.6 °F 58% 30.16 in 10.0 mi West 8.1 mph - N/A   Scattered Clouds
5:52 PM 21.2 °F - 6.8 °F 54% 30.16 in 10.0 mi Calm Calm - N/A   Scattered Clouds
6:12 PM 21.2 °F 13.6 °F 8.6 °F 58% 30.17 in 10.0 mi West 5.8 mph - N/A   Overcast
6:32 PM 21.2 °F 12.6 °F 8.6 °F 58% 30.17 in 10.0 mi West 6.9 mph - N/A   Scattered Clouds
6:52 PM 19.4 °F 12.8 °F 8.6 °F 63% 30.17 in 10.0 mi WSW 4.6 mph - N/A   Clear
7:12 PM 19.4 °F - 8.6 °F 63% 30.17 in 10.0 mi Calm Calm - N/A   Scattered Clouds
7:32 PM 19.4 °F - 8.6 °F 63% 30.16 in 10.0 mi Calm Calm - N/A   Clear
7:52 PM 19.4 °F - 8.6 °F 63% 30.16 in 10.0 mi Calm Calm - N/A   Clear
8:13 PM 19.4 °F - 12.2 °F 74% 30.16 in 10.0 mi Calm Calm - N/A   Clear
8:33 PM 17.6 °F - 12.2 °F 79% 30.16 in 10.0 mi Calm Calm - N/A   Clear
8:53 PM 15.8 °F 10.2 °F 10.4 °F 79% 30.17 in 10.0 mi South 3.5 mph - N/A   Clear
9:13 PM 15.8 °F 10.2 °F 10.4 °F 79% 30.17 in 10.0 mi SSE 3.5 mph - N/A   Clear
9:33 PM 15.8 °F 10.2 °F 10.4 °F 79% 30.17 in 10.0 mi SSE 3.5 mph - N/A   Clear
9:53 PM 15.8 °F 8.6 °F 10.4 °F 79% 30.17 in 10.0 mi SSE 4.6 mph - N/A   Clear
10:13 PM 17.6 °F 9.3 °F 10.4 °F 73% 30.17 in 10.0 mi SSE 5.8 mph - N/A   Clear
10:33 PM 15.8 °F 10.2 °F 8.6 °F 73% 30.17 in 10.0 mi SSE 3.5 mph - N/A   Clear
10:53 PM 15.8 °F 8.6 °F 8.6 °F 73% 30.17 in 10.0 mi SSE 4.6 mph - N/A   Clear
11:13 PM 15.8 °F 8.6 °F 8.6 °F 73% 30.17 in 10.0 mi SSE 4.6 mph - N/A   Clear
11:33 PM 15.8 °F 8.6 °F 10.4 °F 79% 30.17 in 10.0 mi SSE 4.6 mph - N/A   Clear
11:54 PM 15.8 °F 8.6 °F 10.4 °F 79% 30.16 in 10.0 mi SSE 4.6 mph - N/A   Clear